This is the latest recevied weather packets stored in our database for station/object N4NVD-13. If no packets are shown the sender has not sent any weather packets the latest 10 day(s).
| Time | Temp. | Humidity | Pressure | Rain* | Wind** | Luminosity | Snow |
|---|---|---|---|---|---|---|---|
| 1777731502 | 16.67° C | 82% | 1021.2 hPa | 0 mm | - | 273 W/m² | - |
| 1777731201 | 16.67° C | 84% | 1021 hPa | 0 mm | - | 269 W/m² | - |
| 1777730898 | 16.11° C | 85% | 1020.8 hPa | 0 mm | - | 388 W/m² | - |
| 1777730596 | 15.56° C | 86% | 1021 hPa | 0 mm | - | 330 W/m² | - |
| 1777730292 | 15.56° C | 86% | 1020.9 hPa | 0 mm | - | 297 W/m² | - |
| 1777729989 | 15.56° C | 86% | 1020.8 hPa | 0 mm | - | 278 W/m² | - |
| 1777729684 | 15.56° C | 86% | 1020.6 hPa | 0 mm | - | 208 W/m² | - |
| 1777729382 | 15.56° C | 87% | 1020.8 hPa | 0 mm | - | 191 W/m² | - |
| 1777729078 | 15° C | 87% | 1020.4 hPa | 0 mm | - | 235 W/m² | - |
| 1777728775 | 15.56° C | 85% | 1020.6 hPa | 0 mm | - | 226 W/m² | - |
| 1777728471 | 15.56° C | 87% | 1020.6 hPa | 0 mm | - | 256 W/m² | - |
| 1777728169 | 15.56° C | 87% | 1020.5 hPa | 0 mm | - | 259 W/m² | - |
| 1777727866 | 15° C | 89% | 1020.4 hPa | 0 mm | - | 193 W/m² | - |
| 1777727563 | 14.44° C | 91% | 1020.4 hPa | 0 mm | - | 160 W/m² | - |
| 1777727260 | 13.89° C | 93% | 1020.3 hPa | 0 mm | - | 153 W/m² | - |
| 1777726957 | 13.33° C | 94% | 1020.3 hPa | 0 mm | - | 133 W/m² | - |
| 1777726654 | 12.78° C | 95% | 1020.1 hPa | 0 mm | - | 127 W/m² | - |
| 1777726352 | 12.78° C | 96% | 1020.1 hPa | 0 mm | - | 141 W/m² | - |
| 1777726048 | 12.22° C | 97% | 1019.9 hPa | 0 mm | - | 103 W/m² | - |
| 1777725745 | 12.22° C | 98% | 1019.7 hPa | 0 mm | - | 78 W/m² | - |
| 1777725443 | 11.67° C | 99% | 1019.6 hPa | 0 mm | - | 70 W/m² | - |
| 1777725140 | 11.11° C | 99% | 1019.6 hPa | 0 mm | - | 59 W/m² | - |
| 1777724837 | 11.11° C | 99% | 1019.6 hPa | 0 mm | - | 48 W/m² | - |
| 1777724533 | 10.56° C | 99% | 1019.3 hPa | 0 mm | - | 42 W/m² | - |
| 1777724232 | 10° C | 99% | 1019.4 hPa | 0 mm | - | 28 W/m² | - |
* Rain latest hour (hover to see other rain measurements)
** Current wind speed in m/s (hover to see current wind gust speed)